Change the Weather History Date:

Monday, September 10, 2012

  Actual Average Record
Temperature  
Mean Temperature 58 °F 59 °F  
Max Temperature 71 °F 69 °F 92 °F (1931)
Min Temperature 45 °F 50 °F 30 °F (1967)
Degree Days  
Heating Degree Days 7 7  
Month to date heating degree days 37 55  
Since 1 July heating degree days 78 202  
Cooling Degree Days 0 1  
Month to date cooling degree days 18 10  
Year to date cooling degree days 397 188  
Growing Degree Days 8 (Base 50)    
Moisture  
Dew Point 46 °F    
Average Humidity 69    
Maximum Humidity 100    
Minimum Humidity 37    
Precipitation  
Precipitation 0.00 in 0.13 in 1.59 in (2014)
Month to date precipitation 0.29 1.20  
Year to date precipitation 17.44 20.37  
Sea Level Pressure  
Sea Level Pressure 30.12 in    
Wind  
Wind Speed 5 mph (South)    
Max Wind Speed 15 mph    
Max Gust Speed 19 mph    
Visibility 8 miles    
Events Fog    
T = Trace of Precipitation, MM = Missing Value Source: NWS Daily Summary

Daily Weather History Graph

Daily Weather History Graph

Search for Another Location

Airport or City:

Trip Planner

Search our weather history database for the weather conditions in past years. The results will help you decide how hot, cold, wet, or windy it might be!

Date:

Astronomy

Sep. 10, 2012 Rise Set
Actual Time 7:09 AM EDT 7:57 PM EDT
Civil Twilight 6:39 AM EDT 8:28 PM EDT
Nautical Twilight 6:02 AM EDT 9:04 PM EDT
Astronomical Twilight 5:24 AM EDT 9:42 PM EDT
Moon 1:14 AM EDT (9/10) 4:41 PM EDT (9/10)
Length of Visible Light 13h 49m
Length of Day
12h 48m
Waning Crescent, 30% of the Moon is Illuminated
Sep 10
Waning Crescent
Sep 15
New
Sep 22
First Quarter
Sep 29
Full
Oct 8
Last Quarter

Hourly Weather History & Observations

Time (EDT) Temp. Windchill Dew Point Humidity Pressure Visibility Wind Dir Wind Speed Gust Speed Precip Events Conditions
12:55 AM 48.9 °F - 45.0 °F 86% 30.10 in 10.0 mi Calm Calm - N/A   Clear
1:55 AM 48.0 °F - 44.1 °F 86% 30.10 in 10.0 mi Calm Calm - N/A   Clear
2:55 AM 46.9 °F - 43.0 °F 86% 30.11 in 10.0 mi SW 4.6 mph - N/A   Clear
3:55 AM 46.0 °F - 42.1 °F 86% 30.12 in 10.0 mi Calm Calm - N/A   Clear
4:55 AM 45.0 °F - 42.1 °F 90% 30.13 in 10.0 mi Calm Calm - N/A   Partly Cloudy
5:10 AM 45.0 °F - 42.1 °F 90% 30.13 in 10.0 mi Calm Calm - N/A   Mostly Cloudy
5:26 AM 45.0 °F - 42.1 °F 90% 30.13 in 1.2 mi Calm Calm - N/A   Overcast
5:33 AM 45.0 °F - 43.0 °F 93% 30.13 in 0.2 mi Calm Calm - N/A Fog Fog
5:55 AM 45.0 °F 43.5 °F 43.0 °F 93% 30.14 in 0.2 mi ENE 3.5 mph - N/A Fog Fog
6:55 AM 45.0 °F - 43.0 °F 93% 30.15 in 0.5 mi Calm Calm - N/A Fog Fog
7:55 AM 45.0 °F 43.5 °F 44.1 °F 97% 30.17 in 0.2 mi ESE 3.5 mph - N/A Fog Fog
8:55 AM 48.9 °F - 48.0 °F 97% 30.18 in 0.2 mi Calm Calm - N/A Fog Fog
9:55 AM 51.1 °F - 50.0 °F 96% 30.18 in 0.2 mi Calm Calm - N/A Fog Fog
10:07 AM 52.0 °F - 50.0 °F 93% 30.18 in 2.5 mi Variable 3.5 mph - N/A   Overcast
10:24 AM 52.0 °F - 50.0 °F 93% 30.18 in 10.0 mi East 3.5 mph - N/A   Overcast
10:47 AM 55.0 °F - 51.1 °F 86% 30.18 in 10.0 mi Calm Calm - N/A   Partly Cloudy
10:55 AM 57.0 °F - 51.1 °F 81% 30.18 in 10.0 mi Calm Calm - N/A   Partly Cloudy
11:55 AM 64.9 °F - 46.0 °F 50% 30.16 in 10.0 mi Variable 6.9 mph - N/A   Clear
12:55 PM 66.9 °F - 41.0 °F 39% 30.15 in 10.0 mi South 8.1 mph - N/A   Clear
1:55 PM 69.1 °F - 43.0 °F 39% 30.13 in 10.0 mi Variable 6.9 mph - N/A   Clear
2:55 PM 70.0 °F - 45.0 °F 41% 30.11 in 10.0 mi SW 11.5 mph - N/A   Scattered Clouds
3:55 PM 70.0 °F - 46.0 °F 42% 30.09 in 10.0 mi South 9.2 mph - N/A   Clear
4:55 PM 69.1 °F - 48.0 °F 47% 30.08 in 10.0 mi SW 13.8 mph 18.4 mph N/A   Partly Cloudy
5:55 PM 69.1 °F - 46.9 °F 45% 30.06 in 10.0 mi SSW 9.2 mph - N/A   Clear
6:55 PM 66.9 °F - 48.0 °F 51% 30.06 in 10.0 mi SW 8.1 mph - N/A   Clear
7:55 PM 63.0 °F - 50.0 °F 63% 30.05 in 10.0 mi South 3.5 mph - N/A   Clear
8:55 PM 59.0 °F - 48.9 °F 69% 30.06 in 10.0 mi SSE 4.6 mph - N/A   Clear
9:55 PM 57.0 °F - 50.0 °F 77% 30.07 in 10.0 mi SSE 4.6 mph - N/A   Clear
10:55 PM 55.9 °F - 50.0 °F 80% 30.05 in 10.0 mi SSE 4.6 mph - N/A   Clear
11:55 PM 55.9 °F - 51.1 °F 84% 30.04 in 10.0 mi SSE 4.6 mph - N/A   Clear